Weather in Frolishchi

Russia / Nizhny Novgorod Oblast'     56°25′23″N   42°39′09″E
temp.,
°C
wind,
m/s
gust,
m/s
humid.,
%
clouds,
%
prec.,
mm/h
press.,
hPa
HPBL,
m
15 may, sat
sat1500:00+16ese2392100 0.7 101563
03:00+15se3996100 1.0 1014189
06:00+17se3793100 0.0 1012166
09:00+22se467387 0.0 1011441
12:00+26s585587 0.0 10111040
15:00+20wsw61179100 2.0 1012794
18:00+20s4148359 0.0 10111147
21:00+17s4128897 0.0 1012522
16 may, sun
sun1600:00+15ssw312965 0.0 1012332
03:00+13s27960 0.0 1012166
06:00+15s310870 0.0 1013326
09:00+20ssw596331 0.0 1014898
12:00+22sw58491 0.0 10141585
15:00+23sw58451 0.0 10132253
18:00+22ssw485732 0.0 1013734
21:00+15sw22860 0.1 101439
17 may, mon
mon1700:00+13sw23880 0.0 101556
03:00+12wsw129488 0.0 101615
06:00+15sw1284100 0.0 101786
09:00+21s12595 0.0 1018662
12:00+25sse22445 0.0 10171326
15:00+26sse334529 0.0 10161385
18:00+24ese256032 0.0 1016258
21:00+18e399023 0.8 1016148
18 may, tue
tue1800:00+16se23923 0.0 101550
03:00+14se34862 0.0 101560
06:00+16ese27814 0.0 1015156
09:00+24se47485 0.0 1015446
12:00+27se593468 0.0 10141554
15:00+28se5839100 0.0 10141266
18:00+25se510535 0.0 1013758
21:00+20ese4156990 0.0 1012439
19 may, wed
wed1900:00+19ese4156774 0.0 1012383
03:00+18se51759100 0.0 1011446
06:00+19sse5155686 0.0 1011694
09:00+23sse58495 0.0 1011662
12:00+26sse574147 0.0 10111720
15:00+26s61240100 0.0 10102471
18:00+22sse61849100 0.5 10092142
21:00+17ssw2779100 0.5 1010216